Weather History for KOGA - September, 2013

Change the Weather History Date:

Saturday, September 21, 2013

  Actual Average Record
Temperature  
Mean Temperature 66 °F -  
Max Temperature 88 °F 74 °F 95 °F (2005)
Min Temperature 46 °F 43 °F 25 °F (1983)
Cooling Degree Days 2    
Growing Degree Days 16 (Base 50)    
Moisture  
Dew Point 49 °F    
Average Humidity 57    
Maximum Humidity 95    
Minimum Humidity 22    
Precipitation  
Precipitation 0.00 in - - ()
Sea Level Pressure  
Sea Level Pressure 29.89 in    
Wind  
Wind Speed 5 mph (South)    
Max Wind Speed 15 mph    
Max Gust Speed 22 mph    
Visibility 10 miles    
Events      
Averages and records for this station are not official NWS values.
T = Trace of Precipitation, MM = Missing Value Source: NWS Daily Summary

Daily Weather History Graph

Daily Weather History Graph

Search for Another Location

Airport or City:

Trip Planner

Search our weather history database for the weather conditions in past years. The results will help you decide how hot, cold, wet, or windy it might be!

Date:

Astronomy

Sep. 21, 2013 Rise Set
Actual Time 6:33 AM MDT 6:45 PM MDT
Civil Twilight 6:06 AM MDT 7:12 PM MDT
Nautical Twilight 5:34 AM MDT 7:45 PM MDT
Astronomical Twilight 5:01 AM MDT 8:17 PM MDT
Moon 7:55 PM MDT (9/21) 8:56 AM MDT (9/21)
Length of Visible Light 13h 06m
Length of Day
12h 11m
Waning Gibbous, 94% of the Moon is Illuminated
Sep 21
Waning Gibbous
Sep 26
Last Quarter
Oct 4
New
Oct 11
First Quarter
Oct 18
Full

Hourly Weather History & Observations

Time (MDT) Temp. Dew Point Humidity Pressure Visibility Wind Dir Wind Speed Gust Speed Precip Events Conditions
12:15 AM 57.4 °F 47.8 °F 70% 30.02 in 10.0 mi Calm Calm - N/A   Clear
12:35 AM 57.4 °F 47.7 °F 70% 30.02 in 10.0 mi Calm Calm - N/A   Clear
12:55 AM 55.0 °F 47.5 °F 76% 30.01 in 10.0 mi Calm Calm - N/A   Clear
1:15 AM 54.9 °F 47.3 °F 76% 30.00 in 5.0 mi Calm Calm - N/A   Haze
1:35 AM 54.5 °F 47.3 °F 77% 30.00 in 10.0 mi NW 3.5 mph - N/A   Clear
1:55 AM 55.8 °F 48.4 °F 76% 30.00 in 10.0 mi SSW 4.6 mph - N/A   Clear
2:15 AM 56.3 °F 49.1 °F 77% 29.99 in 10.0 mi WSW 4.6 mph - N/A   Clear
2:35 AM 55.0 °F 48.7 °F 79% 29.99 in 10.0 mi SW 3.5 mph - N/A   Clear
2:55 AM 52.9 °F 48.0 °F 84% 29.99 in 10.0 mi Calm Calm - N/A   Clear
3:15 AM 52.2 °F 48.4 °F 87% 29.98 in 10.0 mi Calm Calm - N/A   Clear
3:35 AM 51.6 °F 48.7 °F 90% 29.98 in 10.0 mi SSW 3.5 mph - N/A   Clear
3:55 AM 51.3 °F 48.7 °F 91% 29.97 in 10.0 mi Calm Calm - N/A   Clear
4:15 AM 50.0 °F 47.3 °F 90% 29.97 in 10.0 mi Calm Calm - N/A   Clear
4:35 AM 48.7 °F 46.2 °F 91% 29.97 in 10.0 mi WSW 3.5 mph - N/A   Clear
4:55 AM 47.8 °F 45.7 °F 92% 29.98 in 10.0 mi Calm Calm - N/A   Clear
5:15 AM 48.4 °F 46.2 °F 92% 29.98 in 10.0 mi Calm Calm - N/A   Clear
5:35 AM 47.5 °F 45.5 °F 93% 29.97 in 10.0 mi Calm Calm - N/A   Clear
5:55 AM 47.3 °F 45.3 °F 93% 29.97 in 10.0 mi Calm Calm - N/A   Clear
6:15 AM 48.0 °F 46.4 °F 94% 29.97 in 10.0 mi Calm Calm - N/A   Clear
6:35 AM 46.6 °F 44.6 °F 93% 29.97 in 10.0 mi Calm Calm - N/A   Clear
6:55 AM 46.2 °F 44.6 °F 94% 29.97 in 10.0 mi Calm Calm - N/A   Clear
7:15 AM 47.8 °F 46.4 °F 95% 29.97 in 10.0 mi Calm Calm - N/A   Clear
7:35 AM 50.7 °F 49.1 °F 94% 29.97 in 10.0 mi Calm Calm - N/A   Clear
7:55 AM 53.8 °F 51.6 °F 92% 29.97 in 10.0 mi Calm Calm - N/A   Clear
8:15 AM 56.3 °F 52.9 °F 88% 29.98 in 10.0 mi WSW 3.5 mph - N/A   Clear
8:35 AM 60.6 °F 54.5 °F 80% 29.97 in 10.0 mi Calm Calm - N/A   Clear
8:55 AM 63.5 °F 55.9 °F 76% 29.97 in 10.0 mi Calm Calm - N/A   Clear
9:15 AM 67.8 °F 56.7 °F 67% 29.96 in 10.0 mi SW 5.8 mph - N/A   Clear
9:35 AM 71.4 °F 54.0 °F 54% 29.96 in 10.0 mi SW 10.4 mph 16.1 mph N/A   Clear
9:55 AM 73.4 °F 52.2 °F 47% 29.95 in 10.0 mi South 12.7 mph 18.4 mph N/A   Clear
10:15 AM 74.5 °F 51.6 °F 45% 29.95 in 10.0 mi SSW 13.8 mph 17.3 mph N/A   Clear
10:35 AM 76.1 °F 48.9 °F 38% 29.95 in 10.0 mi SSW 15.0 mph 19.6 mph N/A   Clear
10:55 AM 77.5 °F 48.4 °F 36% 29.94 in 10.0 mi SSW 13.8 mph 18.4 mph N/A   Clear
11:15 AM 78.3 °F 48.9 °F 36% 29.94 in 10.0 mi South 12.7 mph - N/A   Clear
11:35 AM 79.2 °F 48.4 °F 34% 29.93 in 10.0 mi SSW 12.7 mph - N/A   Clear
11:55 AM 80.2 °F 48.7 °F 33% 29.92 in 10.0 mi South 12.7 mph 17.3 mph N/A   Clear
12:15 PM 81.0 °F 48.4 °F 32% 29.91 in 10.0 mi SSW 13.8 mph 21.9 mph N/A   Clear
12:35 PM 81.7 °F 48.4 °F 31% 29.90 in 10.0 mi South 12.7 mph 20.7 mph N/A   Clear
12:55 PM 82.9 °F 48.2 °F 30% 29.89 in 10.0 mi South 15.0 mph 18.4 mph N/A   Clear
1:15 PM 83.7 °F 47.7 °F 28% 29.88 in 10.0 mi South 13.8 mph - N/A   Clear
1:35 PM 84.2 °F 48.4 °F 29% 29.87 in 10.0 mi SSW 13.8 mph 18.4 mph N/A   Clear
1:55 PM 85.3 °F 48.4 °F 28% 29.86 in 10.0 mi SSW 11.5 mph 16.1 mph N/A   Clear
2:15 PM 86.0 °F 48.7 °F 27% 29.86 in 10.0 mi South 11.5 mph 17.3 mph N/A   Clear
2:35 PM 86.4 °F 48.9 °F 27% 29.84 in 10.0 mi South 15.0 mph 19.6 mph N/A   Clear
2:55 PM 86.9 °F 48.4 °F 26% 29.84 in 10.0 mi SSW 12.7 mph 18.4 mph N/A   Clear
3:15 PM 87.4 °F 47.7 °F 25% 29.83 in 10.0 mi SSW 12.7 mph 18.4 mph N/A   Clear
3:35 PM 87.6 °F 46.4 °F 24% 29.82 in 10.0 mi SSW 12.7 mph 18.4 mph N/A   Clear
3:55 PM 87.8 °F 46.0 °F 23% 29.81 in 10.0 mi South 12.7 mph 18.4 mph N/A   Clear
4:15 PM 87.8 °F 45.5 °F 23% 29.81 in 10.0 mi South 13.8 mph 19.6 mph N/A   Clear
4:35 PM 87.1 °F 45.3 °F 23% 29.80 in 10.0 mi SSW 10.4 mph 20.7 mph N/A   Clear
4:55 PM 86.7 °F 44.1 °F 22% 29.79 in 10.0 mi South 11.5 mph 18.4 mph N/A   Clear
5:15 PM 85.8 °F 45.1 °F 24% 29.79 in 10.0 mi South 12.7 mph 21.9 mph N/A   Clear
5:35 PM 84.7 °F 45.9 °F 26% 29.79 in 10.0 mi South 10.4 mph - N/A   Clear
5:55 PM 83.3 °F 48.0 °F 29% 29.79 in 10.0 mi South 6.9 mph - N/A   Clear
6:15 PM 81.5 °F 47.7 °F 31% 29.79 in 10.0 mi South 5.8 mph - N/A   Clear
6:35 PM 79.2 °F 47.5 °F 33% 29.79 in 10.0 mi South 8.1 mph - N/A   Clear
6:55 PM 76.3 °F 49.3 °F 39% 29.78 in 10.0 mi South 5.8 mph - N/A   Clear
7:15 PM 73.6 °F 50.7 °F 45% 29.79 in 10.0 mi SSE 4.6 mph - N/A   Clear
7:35 PM 71.4 °F 51.1 °F 49% 29.79 in 10.0 mi South 8.1 mph - N/A   Clear
7:55 PM 71.6 °F 50.7 °F 48% 29.79 in 10.0 mi South 9.2 mph - N/A   Clear
8:15 PM 70.2 °F 50.9 °F 50% 29.79 in 10.0 mi South 8.1 mph - N/A   Clear
8:35 PM 69.3 °F 51.1 °F 52% 29.79 in 10.0 mi South 5.8 mph - N/A   Clear
8:55 PM 69.4 °F 50.9 °F 52% 29.79 in 10.0 mi South 6.9 mph - N/A   Clear
9:15 PM 70.0 °F 50.5 °F 50% 29.79 in 10.0 mi South 9.2 mph - N/A   Clear
9:35 PM 69.3 °F 50.4 °F 51% 29.79 in 10.0 mi South 10.4 mph - N/A   Clear
9:55 PM 69.1 °F 50.2 °F 51% 29.79 in 10.0 mi South 8.1 mph - N/A   Clear
10:15 PM 68.0 °F 50.5 °F 54% 29.79 in 10.0 mi South 6.9 mph - N/A   Clear
10:35 PM 68.2 °F 52.7 °F 58% 29.79 in 10.0 mi South 10.4 mph 16.1 mph N/A   Clear
10:55 PM 68.2 °F 54.0 °F 60% 29.79 in 10.0 mi South 11.5 mph 16.1 mph N/A   Clear
11:15 PM 67.3 °F 54.5 °F 63% 29.79 in 10.0 mi South 10.4 mph - N/A   Clear
11:35 PM 66.7 °F 55.0 °F 66% 29.79 in 10.0 mi South 6.9 mph - N/A   Clear
11:55 PM 66.4 °F 55.4 °F 68% 29.78 in 10.0 mi South 4.6 mph - N/A   Clear